Weather Roundup
Issued by NWS Springfield, MO

Home | Current Version | Previous Version | Text Only | Print | Product List | Glossary On
Versions: 1 2 3 4 5 6 7 8 9 10 11 12 13 14 15 16 17 18 19 20 21 22 23 24 25 26 27 28 29 30 31 32 33 34 35 36 37 38 39 40 41 42 43 44 45 46 47 48 49 50
000
NZUS99 KSGF 290257
HRRSGF

HOURLY WEATHER
NATIONAL WEATHER SERVICE SPRINGFIELD MO
1000 PM CDT SAT MAY 28 2016

......SGF CWA......

CITY           SKY/WX    TMP DP  RH WIND       PRES   REMARKS
SPRINGFIELD    CLEAR     68  61  78 SW5       30.02R
JOPLIN         CLEAR     67  63  87 S8        30.01R
WEST PLAINS    CLEAR     72  65  78 S7        30.04R
ROLLA          CLOUDY    66  61  84 SW8       30.00S

......SURROUNDING SGF CWA......

CITY           SKY/WX    TMP DP  RH WIND       PRES   REMARKS
CHANUTE        CLEAR     66  62  87 S5        29.99R
PARSONS        CLEAR     65  63  93 CALM      30.01R
COFFEYVILLE    CLEAR     71  65  81 SE5       29.99R
EMPORIA        CLEAR     66  60  81 SW5       30.00R
HARRISON AR    CLEAR     70  65  84 S5        30.04R

......KANSAS AND MISSOURI......

CITY           SKY/WX    TMP DP  RH WIND       PRES   REMARKS
KANSAS CTY INT CLEAR     65  59  81 S6        29.97R
SEDALIA        CLEAR     71  62  73 SW3       30.00R
ST JOSEPH      CLEAR     68  61  78 SW6       29.95R
ST LOUIS       CLOUDY    79  65  62 SW10G21   29.98R
WICHITA        CLEAR     72  58  61 CALM      30.00R
TOPEKA         CLEAR     69  58  67 SW6       29.98R
OLATHE         CLEAR     68  59  73 SW3       29.98R

......TENNESSEE......

CITY           SKY/WX    TMP DP  RH WIND       PRES   REMARKS
MEMPHIS        NOT AVBL
NASHVILLE      PTCLDY    73  61  65 CALM      30.09R

......ARKANSAS.......

CITY           SKY/WX    TMP DP  RH WIND       PRES   REMARKS
FAYETTEVILLE   PTCLDY    66  66 100 CALM      30.04R
FT SMITH       CLEAR     74  64  71 SE3       30.00R
LITTLE ROCK    CLEAR     75  66  73 SW5       30.03R

......OKLAHOMA.......

CITY           SKY/WX    TMP DP  RH WIND       PRES   REMARKS
TULSA          CLEAR     74  65  73 S3        29.98R
PONCA CITY     CLEAR     72  60  66 CALM      29.99R
MCALESTER      PTCLDY    74  67  78 S3        30.02R
OKLAHOMA CITY  CLEAR     70  65  84 SE7       30.01R

......IOWA............

CITY           SKY/WX    TMP DP  RH WIND       PRES   REMARKS
DES MOINES     NOT AVBL
QUAD CITIES    MOCLDY    72  60  66 SW9       29.89R

......ILLINOIS........

CITY           SKY/WX    TMP DP  RH WIND       PRES   REMARKS
QUINCY         NOT AVBL
CHICAGO        MOCLDY    75  61  61 W16G24    29.94R



USA.gov is the U.S. government's official web portal to all federal, state and local government web resources and services.